Home > Weather > Trieste > Past weeks

Flag for Italy Past Weather in Trieste, Italy — Yesterday and Last 2 Weeks

Now
79 °F

Partly sunny.


Feels Like: 82 °F
Forecast: 69 / 89 °F
Wind: 9 mph from Northeast

Location: Trieste

Current Time: Jul 28, 2016 at 4:45:19 PM

Latest Report: Jul 28, 2016 at 4:00 PM


Visibility: 6 mi

Pressure: 29.93 "Hg

Humidity: 68%

Dew Point: 68 °F

Location of TriesteLocation

Past Weather in Trieste — Graph

°F

Trieste Temperature Yesterday

Maximum temperature yesterday: 90 °F (at 11:00 AM)
Minimum temperature yesterday: 73 °F (at 5:00 AM)
Average temperature yesterday: 82 °F

High & Low Weather Summary for the Past Weeks

 TemperatureHumidityPressure
High95 °F (Jul 26, 4:00 PM)100% (Jul 23, 3:00 AM)30.10 "Hg (Jul 23, 3:00 AM)
Low63 °F (Jul 16, 3:00 AM)32% (Jul 16, 2:00 PM)29.69 "Hg (Jul 13, 9:00 PM)
Average78 °F60%29.97 "Hg
* Reported Jul 13 3:00 PM — Jul 28 3:00 PM, Trieste, Weather by CustomWeather, © 2016

Note: Actual official high and low records may vary slightly from our data, if they occured in-between our weather recording intervals... More about our weather records

Advertising

Trieste Weather History for the Previous 24 Hours

Scroll right to see more
 ConditionsComfort  
Time TempWeatherWind HumidityBarometerVisibility
3:00 PM
Thu, Jul 28
75 °FThunderstorms. Overcast.9 mph80%29.95 "Hg6 mi
2:00 PM73 °FThunderstorms. Overcast.7 mph86%29.97 "Hg6 mi
1:00 PM79 °FOvercast.3 mph78%29.96 "Hg6 mi
12:00 PM81 °FOvercast.2 mph75%29.94 "Hg12 mi
11:00 AM80 °FPartly sunny.2 mph78%29.94 "Hg12 mi
10:00 AM84 °FScattered clouds.5 mph63%29.94 "Hg12 mi
9:00 AM81 °FScattered clouds.No wind65%29.94 "Hg12 mi
8:00 AM77 °FScattered clouds.No wind71%29.93 "Hg12 mi
7:00 AM76 °FScattered clouds.No wind71%29.93 "Hg12 mi
6:00 AM76 °FPassing clouds.2 mph66%29.92 "Hg12 mi
5:00 AM76 °FPassing clouds.2 mph66%29.92 "Hg12 mi
4:00 AM76 °FPassing clouds.1 mph67%29.92 "Hg12 mi
3:00 AM77 °FPassing clouds.6 mph65%29.92 "Hg12 mi
2:00 AM77 °FPassing clouds.5 mph65%29.92 "Hg12 mi
1:00 AM78 °FPassing clouds.1 mph67%29.92 "Hg12 mi
12:00 AM77 °FPassing clouds.6 mph69%29.92 "Hg12 mi
11:00 PM
Wed, Jul 27
77 °FPassing clouds.5 mph69%29.92 "Hg12 mi
10:00 PM77 °FPassing clouds.2 mph72%29.91 "Hg12 mi
9:00 PM77 °FOvercast.No wind77%29.90 "Hg12 mi
8:00 PM81 °FOvercast.6 mph70%29.92 "Hg12 mi
7:00 PM82 °FOvercast.5 mph55%29.90 "Hg12 mi
6:00 PM84 °FScattered clouds.8 mph50%29.89 "Hg12 mi
5:00 PM88 °FScattered clouds.5 mph45%29.90 "Hg12 mi
4:00 PM86 °FScattered clouds.No wind71%29.90 "Hg12 mi
Weather by CustomWeather, © 2016

See weather overviewHow to use our weather pages